SCP
0 0 0 0 0 0 0 0 0 0 0 0 0 0 0 0 0 0 0 0 0 0 0 0 0 0 0 0 0 0 0 0 0 0 0 0 0 0 0 0 0 0 0 0 0 0 0 0 0
0 0 0 0 0 0 0 0 0 0 0 0 0 0 0 0 0 0 0 0 0 0 0 0 0 0 0 0 0 0 0 0 0 0 0 0 0 0 0 0 0 0 0 0 0 0 0 0 0
0 0 0 0 0 0 0 0 0 0 0 0 0 0 0 0 0 0 0 0 0 0 0 0 0 0 0 0 0 0 0 0 0 0 0 0 0 0 0 0 0 0 0 0 0 0 0 0 0
0 0 0 0 0 0 0 0 0 0 0 0 0 0 0 0 0 0 0 0 0 0 0 0 0 0 0 0 0 0 0 0 0 0 0 0 0 0 0 0 0 0 0 0 0 0 0 0 0
0 0 0 0 0 0 0 0 0 0 0 0 0 0 0 0 0 0 0 0 0 0 0 0 1 0 0 0 0 0 0 0 0 0 0 0 0 0 0 0 0 0 0 0 0 0 0 0 0
0 0 0 0 0 0 0 0 0 0 0 0 0 0 0 0 0 0 0 0 0 0 0 0 1 1 0 0 0 0 0 0 0 0 0 0 0 0 0 0 0 0 0 0 0 0 0 0 0
0 0 0 0 0 0 0 0 0 0 0 0 0 0 0 0 0 0 0 0 0 0 0 0 0 0 0 0 0 0 0 0 0 0 0 0 0 0 0 0 0 0 0 0 0 0 0 0 0
0 0 0 0 0 0 0 0 0 0 0 0 0 0 0 0 0 0 0 0 0 0 0 0 0 0 0 0 0 0 0 0 0 0 0 0 0 0 0 0 0 0 0 0 0 0 0 0 0
0 0 0 0 0 0 0 0 0 0 0 0 0 0 0 0 0 0 0 0 0 0 0 0 0 0 0 0 0 0 0 0 0 0 0 0 0 0 0 0 0 0 0 0 0 0 0 0 0
0 0 0 0 0 0 0 0 0 0 0 0 0 0 0 0 0 0 0 0 0 0 0 0 0 0 0 0 0 0 0 0 0 0 0 0 0 0 0 0 0 0 0 0 0 0 0 0 0
0 0 0 0 0 0 0 0 0 0 0 0 0 0 0 0 0 0 0 0 0 0 0 0 0 0 0 0 0 0 0 0 0 0 0 0 0 0 0 0 0 0 0 0 0 0 0 0 0
0 0 0 0 0 0 0 0 0 0 0 0 0 0 0 0 0 0 0 0 0 0 0 0 0 0 0 0 0 0 0 0 0 0 0 0 0 0 0 0 0 0 0 0 0 0 0 0 0
0 0 0 0 0 0 0 0 0 0 0 0 0 0 0 0 0 0 0 0 0 0 0 0 0 0 0 0 0 0 0 0 0 0 0 0 0 0 0 0 0 0 0 0 0 0 0 0 0
0 0 0 0 0 0 0 0 0 0 0 0 0 0 0 0 0 0 0 0 0 0 0 0 0 0 0 0 0 0 0 0 0 0 0 0 0 0 0 0 0 0 0 0 0 0 0 0 0
0 0 0 0 0 0 0 0 0 0 0 0 0 0 0 0 0 0 0 0 0 0 0 0 0 0 0 0 0 0 0 0 0 0 0 0 0 0 0 0 0 0 0 0 0 0 0 0 0
0 0 0 0 0 0 0 0 0 0 0 0 0 0 0 0 0 0 0 0 0 0 0 0 0 0 0 0 0 0 0 0 0 0 0 0 0 0 0 0 0 0 0 0 0 0 0 0 0
0 0 0 0 0 0 0 0 0 0 0 0 0 0 0 0 0 0 0 0 0 0 0 0 0 0 0 0 0 0 0 0 0 0 0 0 0 0 0 0 0 0 0 0 0 0 0 0 0
0 0 0 0 0 0 0 0 0 0 0 0 0 0 0 0 0 0 0 0 0 0 0 0 0 0 0 0 0 0 0 0 0 0 0 0 0 0 0 0 0 0 0 0 0 0 0 0 0
0 0 0 0 0 0 0 0 0 0 0 0 0 0 0 0 0 0 0 0 0 0 0 0 0 0 0 0 0 0 0 0 0 0 0 0 0 0 0 0 0 0 0 0 0 0 0 0 0
0 0 0 0 0 0 0 0 0 0 0 0 0 0 0 0 0 0 0 0 0 0 0 0 0 0 0 0 0 0 0 0 0 0 0 0 0 0 0 0 0 0 0 0 0 0 0 0 0
0 0 0 0 0 0 0 0 0 0 0 0 0 0 0 0 0 0 0 0 0 0 0 0 0 0 0 0 0 0 0 0 0 0 0 0 0 0 0 0 0 0 0 0 0 0 0 0 0
0 0 0 0 0 0 0 0 0 0 0 0 0 0 0 0 0 0 0 0 0 0 0 0 0 0 0 0 0 0 0 0 0 0 0 0 0 0 0 0 0 0 0 0 0 0 0 0 0
0 0 0 0 0 0 0 0 0 0 0 0 0 0 0 0 0 0 0 0 0 0 0 0 0 0 0 0 0 0 0 0 0 0 0 0 0 0 0 0 0 0 0 0 0 0 0 0 0
0 0 0 0 0 0 0 0 0 0 0 0 0 0 0 0 0 0 0 0 0 0 0 0 0 0 0 0 0 0 0 0 0 0 0 0 0 0 0 0 0 0 0 0 0 0 0 0 0
0 0 0 0 0 0 0 0 0 0 0 0 0 0 0 0 0 0 0 0 0 0 0 0 0 0 0 0 0 0 0 0 0 0 0 0 0 0 0 0 0 0 0 0 0 0 0 0 0
0 0 0 0 0 0 0 0 0 0 0 0 0 0 0 0 0 0 0 0 0 0 0 0 0 0 0 0 0 0 0 0 0 0 0 0 0 0 0 0 0 0 0 0 0 0 0 0 0
0 0 0 0 0 0 0 0 0 0 0 0 0 0 0 0 0 0 0 0 0 0 0 0 0 0 0 0 0 0 0 0 0 0 0 0 0 0 0 0 0 0 0 0 0 0 0 0 0
0 0 0 0 0 0 0 0 0 0 0 0 0 0 0 0 0 0 0 0 0 0 0 0 0 0 0 0 0 0 0 0 0 0 0 0 0 0 0 0 0 0 0 0 0 0 0 0 0
0 0 0 0 0 0 0 0 0 0 0 0 0 0 0 0 0 0 0 0 0 0 0 0 0 0 0 0 0 0 0 0 0 0 0 0 0 0 0 0 0 0 0 0 0 0 0 0 0
0 0 0 0 0 0 0 0 0 0 0 0 0 0 0 0 0 0 0 0 0 0 0 0 0 0 0 0 0 0 0 0 0 0 0 0 0 0 0 0 0 0 0 0 0 0 0 0 0
Wind_Speed
8 6 3 4 6 4 3 6 4 5 4 2 2 5 5 3 1 3 0 7 11 11 9 13 16 17 16 14 12 10 9 9 7 6 7 7 6 5 5 4 4 4 4 4 3 4 6 7 8
4 4 5 5 5 1 5 5 6 6 4 2 2 4 4 1 0 3 3 8 13 12 9 9 16 17 15 13 12 10 9 9 7 6 7 8 7 6 5 4 4 5 5 4 3 3 6 5 5
4 4 5 4 3 5 5 4 3 3 3 2 2 3 4 3 2 5 5 11 11 10 9 11 17 17 15 14 12 10 9 8 7 7 7 8 7 6 6 5 5 5 5 5 4 2 5 4 3
4 5 5 4 3 6 6 8 7 4 3 0 4 3 1 1 4 5 8 12 12 9 9 12 18 17 16 15 13 12 11 9 8 7 7 7 8 7 6 6 6 6 5 5 5 3 3 3 3
5 5 4 2 5 6 6 8 8 5 3 2 4 4 1 4 1 6 9 12 12 10 9 13 18 18 17 16 14 13 12 10 9 8 7 7 8 8 7 7 6 6 6 5 5 6 6 6 6
4 5 3 3 6 7 6 6 6 6 4 3 6 5 3 0 3 6 7 9 10 11 10 11 17 16 17 17 16 14 12 11 11 10 9 8 8 8 7 7 7 7 8 7 7 8 9 8 8
4 4 2 4 5 6 5 9 5 5 4 5 8 6 3 4 6 6 6 7 7 9 9 8 9 11 14 15 15 14 12 11 11 12 10 9 8 8 8 7 8 9 9 9 9 9 10 11 11
4 4 1 3 4 5 7 10 6 4 3 2 7 7 7 7 7 6 5 6 7 7 9 9 8 8 8 9 13 13 12 10 10 11 10 8 8 8 9 8 9 10 11 10 10 11 12 12 12
3 4 3 4 3 5 7 7 7 6 4 2 2 3 5 8 9 6 5 4 6 7 7 8 8 8 8 8 10 11 11 10 10 10 10 8 5 5 6 8 10 12 13 12 12 13 13 12 12
4 4 7 6 4 5 7 6 7 8 7 2 2 3 1 8 10 10 9 8 10 11 9 8 10 10 8 8 6 5 6 6 6 5 6 5 5 5 7 9 12 14 14 14 15 14 13 10 4
6 7 6 7 6 5 6 6 4 4 6 4 4 4 5 6 8 10 10 9 11 10 11 11 11 10 9 6 5 4 4 4 5 7 7 5 5 4 5 4 7 9 10 7 8 8 5 4 4
5 8 7 7 6 4 5 5 6 4 9 8 7 6 9 9 11 13 14 11 7 7 9 11 12 10 9 8 6 6 5 4 5 6 8 6 4 5 5 5 6 6 5 5 5 4 5 6 6
5 7 8 10 11 7 7 8 6 8 12 10 5 7 12 13 12 11 10 8 7 9 9 9 11 12 10 8 6 7 7 7 7 6 8 9 7 7 6 6 6 6 5 5 6 6 7 7 7
6 6 5 7 7 5 7 9 5 10 9 7 4 8 12 13 14 11 10 11 11 12 12 11 11 12 11 10 9 8 8 8 7 8 9 11 9 8 7 7 7 8 7 7 7 8 8 8 7
4 5 7 7 7 5 4 8 9 11 8 8 7 7 9 10 9 10 11 12 12 12 11 13 13 11 12 12 12 9 8 8 8 8 9 11 10 9 8 7 8 7 5 6 5 6 6 6 7
0 1 5 7 5 6 5 10 14 8 5 7 5 2 3 3 2 3 5 6 7 8 9 11 11 12 13 12 11 8 8 9 9 7 7 10 10 9 7 7 7 5 4 5 5 6 6 7 8
0 3 6 8 6 5 7 10 11 4 3 4 3 4 5 6 7 7 7 6 4 3 5 8 10 11 13 12 9 8 7 9 7 6 6 8 9 8 7 7 7 5 5 6 7 7 6 8 9
6 5 5 7 6 6 8 10 10 5 2 3 4 5 5 7 6 6 7 8 7 7 5 3 4 6 7 6 4 4 5 6 5 6 7 8 7 8 8 8 8 6 6 7 6 8 7 7 6
5 3 6 10 9 7 8 9 9 1 5 5 4 4 4 4 4 6 8 8 7 9 9 8 6 3 2 3 3 4 5 5 4 5 7 7 7 8 8 8 8 7 9 11 10 9 9 9 5
5 6 9 9 4 4 4 6 5 3 4 5 5 4 4 4 6 8 9 9 9 9 8 8 8 7 2 2 2 2 1 2 3 3 4 6 7 8 8 10 10 9 9 11 11 9 8 8 6
8 8 8 6 4 3 1 4 1 1 1 3 3 4 4 5 6 7 8 9 9 10 9 8 9 9 8 5 3 3 3 3 3 3 3 4 6 7 8 10 11 10 9 10 12 10 12 12 9
8 9 8 3 1 3 1 4 5 4 3 3 3 4 4 5 5 5 7 7 8 8 7 9 9 11 10 9 8 7 5 3 3 3 3 5 6 6 7 8 9 9 8 10 11 11 11 13 12
8 5 4 2 2 2 1 2 7 3 6 7 5 5 5 5 5 5 5 6 6 7 7 8 9 11 10 10 9 8 7 4 3 4 6 7 6 7 8 8 7 7 7 9 11 11 12 11 13
5 5 5 5 4 3 6 6 8 8 11 9 7 6 6 6 5 4 4 5 6 7 7 8 10 10 10 10 10 9 9 8 8 8 7 6 5 5 9 9 8 8 7 8 9 10 11 11 13
5 6 2 2 1 7 4 5 11 10 10 13 12 9 8 7 6 5 4 4 5 6 7 7 8 9 9 9 9 9 8 8 7 6 6 6 5 5 9 8 8 8 8 8 8 9 9 9 11
6 8 7 6 6 5 2 7 9 6 5 8 9 9 8 7 6 6 5 4 3 5 6 6 7 7 8 8 7 7 7 5 5 5 5 5 5 5 8 9 9 9 10 10 9 7 8 8 9
8 6 6 4 2 3 5 7 6 6 8 10 9 8 8 8 7 6 5 4 3 4 5 5 7 7 7 7 7 7 7 7 6 6 6 6 6 7 10 10 10 10 10 10 10 7 9 9 8
6 7 5 4 4 4 5 4 4 2 7 9 10 9 8 7 6 6 5 3 3 4 5 6 7 7 6 7 7 6 6 6 6 6 8 8 8 9 10 11 11 12 12 12 11 10 10 10 9
4 4 4 3 3 4 3 6 5 8 10 11 11 9 9 8 7 6 4 3 5 5 6 6 6 6 6 6 6 6 6 6 6 6 7 7 7 8 9 10 11 11 12 12 12 12 11 11 11
5 6 7 4 3 3 2 8 6 3 8 8 8 8 7 7 6 5 4 5 6 6 6 6 5 5 5 5 5 6 6 6 7 7 8 8 8 8 9 9 10 11 11 11 12 12 12 12 12
Wind_Direction
322 345 40 54 54 52 252 253 250 294 286 240 120 106 119 125 203 255 42 139 143 146 161 168 169 162 160 161 164 169 165 163 167 168 156 155 143 134 131 130 135 131 126 131 137 147 139 132 133
335 8 45 57 90 153 262 254 271 250 247 267 85 107 102 121 178 139 124 147 145 150 159 163 166 163 163 164 167 169 171 172 174 179 174 162 152 145 143 146 157 152 147 152 158 154 143 144 143
350 53 70 70 134 194 235 249 284 271 249 210 82 71 140 174 191 185 167 150 143 151 159 164 165 167 167 168 170 171 175 175 183 194 187 172 164 162 161 164 164 160 160 165 170 161 157 164 158
45 37 49 69 251 238 239 272 290 280 289 136 114 89 88 5 199 193 151 151 148 156 159 166 169 172 172 171 173 174 179 185 191 186 182 181 179 176 174 175 175 174 175 177 180 185 180 180 211
59 68 44 341 270 262 256 266 269 266 259 221 136 149 233 336 140 147 147 158 156 161 166 171 174 176 176 176 178 181 185 191 192 182 185 192 189 186 187 190 191 189 190 194 200 206 209 208 223
51 66 70 282 276 283 282 277 268 252 245 198 143 160 225 217 145 160 155 160 163 164 170 175 179 178 179 180 184 187 191 197 197 193 196 201 203 206 202 208 210 207 205 206 211 217 221 221 224
109 105 185 249 275 292 294 313 276 248 240 196 151 151 248 214 205 181 159 148 162 165 166 173 177 179 181 184 187 191 196 205 206 202 206 213 216 217 214 219 220 218 217 218 222 226 228 228 229
136 109 238 261 261 278 307 327 339 329 272 177 132 155 220 209 190 172 152 137 162 168 171 173 175 178 182 187 191 193 197 205 210 206 204 210 209 215 222 222 224 222 220 224 230 234 235 232 232
102 91 232 242 243 280 309 325 320 313 317 15 61 189 226 155 148 153 161 149 176 183 184 179 180 184 184 189 198 196 198 204 208 208 204 207 208 214 227 224 224 222 221 225 232 236 237 236 234
113 167 227 225 229 278 299 308 315 339 332 337 348 349 68 141 157 172 187 193 192 196 195 191 191 192 187 194 195 195 199 205 205 197 202 205 207 216 224 226 225 226 226 228 234 237 238 238 234
175 197 235 250 249 261 284 294 306 331 299 276 260 226 170 173 180 192 204 206 201 194 196 197 198 198 192 194 188 190 196 202 205 201 202 207 212 223 231 229 231 230 230 231 241 245 238 232 226
198 233 232 254 258 263 267 274 287 248 247 262 271 207 181 190 199 204 211 216 207 202 201 198 200 200 199 195 194 191 196 204 208 208 208 210 219 226 229 227 222 217 219 222 227 233 238 237 236
232 257 262 268 276 269 266 256 255 260 264 277 268 180 193 201 210 217 221 227 217 217 216 202 193 198 198 195 198 198 202 208 211 212 214 214 221 228 228 226 221 218 216 217 221 227 233 236 239
226 238 266 273 273 266 257 267 265 263 274 302 262 208 211 213 214 218 223 226 222 221 220 211 200 195 190 194 198 200 202 206 209 216 219 217 222 225 224 224 223 222 218 219 220 222 227 231 235
234 267 296 274 257 251 260 285 258 258 292 280 260 240 234 234 231 229 232 234 231 228 223 215 211 199 195 197 199 200 201 203 211 217 219 222 223 225 227 230 231 228 219 222 229 233 236 239 238
242 260 279 275 248 234 187 261 268 280 300 277 276 309 317 301 310 305 305 275 261 247 236 225 216 206 206 206 202 202 203 206 214 215 218 224 226 222 222 233 241 234 218 220 226 226 231 238 238
33 237 255 284 255 211 183 244 269 311 331 325 0 60 65 51 37 20 8 359 341 285 247 232 223 214 211 211 206 205 204 212 217 213 219 223 224 220 218 233 238 220 218 224 231 228 223 238 241
203 219 252 261 274 181 196 243 275 326 81 86 75 78 65 56 30 10 9 6 7 10 13 345 246 233 220 214 211 214 221 226 220 218 225 226 224 221 221 237 240 224 227 236 232 240 235 241 246
187 207 276 267 249 191 208 240 273 295 114 118 104 89 78 59 24 18 14 7 13 17 19 18 17 335 197 175 192 208 226 229 230 231 235 235 234 229 227 239 241 228 233 240 232 230 237 244 226
240 276 288 291 282 188 219 260 273 197 165 152 137 117 87 53 27 17 12 14 20 22 19 22 21 16 16 190 176 178 206 238 245 260 258 247 241 236 235 238 243 237 239 243 240 229 238 248 212
235 232 251 263 330 354 248 303 280 328 133 119 109 103 82 64 44 21 13 15 21 25 20 27 26 28 25 30 73 66 52 22 8 334 304 291 279 268 259 255 253 249 240 245 245 234 235 249 242
237 228 217 209 125 279 196 263 260 220 201 163 140 109 90 71 56 37 24 22 21 17 18 29 33 36 32 36 52 58 54 30 351 334 332 328 323 313 304 291 280 271 260 253 253 245 240 243 252
215 209 194 144 133 319 277 222 271 206 214 208 193 160 124 101 86 63 42 34 27 21 26 29 37 39 33 39 48 55 51 34 7 6 7 1 351 353 352 343 332 312 293 278 270 265 256 250 249
166 75 52 44 66 281 224 185 265 207 207 195 196 179 148 133 117 96 63 48 36 28 30 32 39 36 29 34 38 44 42 32 26 17 10 1 351 352 360 354 350 342 333 320 306 292 280 271 265
116 103 65 352 332 251 229 191 247 225 199 178 179 175 164 158 145 128 100 69 51 42 37 39 46 39 30 35 36 35 37 37 33 19 8 3 353 345 349 348 345 343 337 330 325 317 305 293 285
163 148 167 192 215 264 245 227 254 281 182 145 145 155 163 167 163 156 147 119 78 58 49 49 52 45 34 35 33 32 34 34 26 18 9 1 349 335 339 340 338 336 335 333 328 320 312 307 300
148 191 187 158 230 258 265 275 310 39 113 129 143 157 176 180 176 168 158 136 102 68 57 59 61 49 36 32 31 30 26 26 19 12 6 358 349 343 341 337 335 334 332 330 327 320 315 311 305
161 162 129 159 195 241 281 274 262 178 158 155 167 179 190 189 182 173 164 148 99 75 68 62 62 53 38 33 30 29 22 19 13 9 2 352 343 339 337 336 335 333 331 330 328 323 319 320 318
169 170 152 160 180 175 250 273 239 208 188 178 186 190 192 189 182 176 167 125 92 78 69 64 56 47 35 26 23 22 14 10 8 2 351 341 335 334 334 334 333 331 329 329 326 322 325 325 322
180 180 151 165 217 173 194 268 290 236 187 178 188 199 201 185 169 152 128 102 91 84 74 64 50 40 26 18 19 17 14 11 7 357 348 343 339 337 335 334 331 329 327 325 320 320 327 322 319